Location: North Runcton
(52.7000°N, 0.4333°E)
Time: 06:09:37
(UTC+00:00)

Meteor 2-9 Rocket - Pass Details

Date: 19 May 2025
Orbit: 791 x 893 km, 81.3° (Epoch: 13 June)

Event Time Altitude Azimuth Distance (km) Brightness Sun altitude
Rises 22:12:09 0° 346° (NNW) 3,396 9.1 -14.0°
Reaches altitude 10° 22:14:33 10° 347° (NNW) 2,472 8.0 -14.1°
Maximum altitude 22:20:11 90° 71° (ENE) 867 4.2 -14.5°
Enters shadow 22:24:07 21° 168° (SSE) 1,841 5.3 -14.7°
